Powrót do katalogu

STARLINK-34041

AktywnyŁącznośćVLEO
NORAD 63844·PAYLOAD·🇺🇸 United States

Wystrzelony May 7, 2025 z Cape Canaveral Space Force Station

Loading…

Następne Przeloty (najbliższe 24 godziny)

TLE

ŚwieżeSource: CelesTrak SupGP

Epoka: Sep 14, 2026, 21:03 UTC

1 63844C 25093J   26257.87756944 -.00007873  00000+0 -28524-3 0  2573
2 63844  43.0002  89.7657 0001477 271.8077  49.1198 15.27572225    10

Śledź STARLINK-34041 w czasie rzeczywistym z AllMySat

Download on the App Store